Location: ????????
(60.4333°N, 46.4710°E)
Time: 04:14:19
(UTC+00:00)

Ariane Rocket - Pass Details

Date: 25 November 2020
Orbit: 760 x 769 km, 98.7° (Epoch: 19 January)

Event Time Altitude Azimuth Distance (km) Brightness Sun altitude
Exits shadow 16:13:24 40° 347° (NNW) 1,129 3.9 -29.4°
Drops below altitude 10° 16:16:37 10° 343° (NNW) 2,315 5.8 -29.8°
Sets 16:18:56 0° 342° (NNW) 3,244 6.6 -30.1°
